Location: Tr�vern
(48.0333°N, 4.6000°W)
Time: 02:55:41
(UTC+00:00)

SL-8 R/B - Pass Details

Date: 14 July 2020
Orbit: 656 x 668 km, 48.4° (Epoch: 04 August)

Event Time Altitude Azimuth Distance (km) Brightness Sun altitude
Exits shadow 01:46:37 36° 211° (SSW) 1,057 4.2 -17.9°
Maximum altitude 01:48:16 53° 155° (SSE) 812 3.8 -17.8°
Drops below altitude 10° 01:52:56 10° 79° (E) 2,082 6.7 -17.6°
Sets 01:55:19 0° 75° (ENE) 2,994 7.6 -17.4°
